Time,TemperatureF,DewpointF,PressureIn,WindDirection,WindDirectionDegrees,WindSpeedMPH,WindSpeedGustMPH,Humidity,HourlyPrecipIn,Conditions,Clouds,dailyrainin,SoftwareType,DateUTC
2013-10-15 00:01:00,44.0,41.0,30.28,WNW,292,0.0,0.0,89,0.00,,,0.00,Weather View 32 v70,2013-10-15 04:01:00,
2013-10-15 00:02:00,44.0,41.0,30.28,ENE,68,0.0,0.0,89,0.00,,,0.00,Weather View 32 v70,2013-10-15 04:02:00,
2013-10-15 00:07:00,44.0,41.0,30.28,SE,135,0.0,0.0,89,0.00,,,0.00,Weather View 32 v70,2013-10-15 04:07:00,
2013-10-15 00:12:00,44.0,41.0,30.28,ESE,112,0.0,0.0,89,0.00,,,0.00,Weather View 32 v70,2013-10-15 04:12:00,
2013-10-15 00:17:00,44.0,41.3,30.27,ESE,112,0.0,0.0,90,0.00,,,0.00,Weather View 32 v70,2013-10-15 04:17:00,
2013-10-15 00:22:00,45.0,42.2,30.27,SE,135,0.0,0.0,90,0.00,,,0.00,Weather View 32 v70,2013-10-15 04:22:00,
2013-10-15 00:27:00,45.0,42.2,30.27,SE,135,0.0,0.0,90,0.00,,,0.00,Weather View 32 v70,2013-10-15 04:27:00,
2013-10-15 00:32:00,45.0,42.2,30.27,SSE,158,0.0,0.0,90,0.00,,,0.00,Weather View 32 v70,2013-10-15 04:32:00,
2013-10-15 00:37:00,45.0,42.2,30.27,SE,135,0.0,0.0,90,0.00,,,0.00,Weather View 32 v70,2013-10-15 04:37:00,
2013-10-15 00:42:00,45.0,42.2,30.27,SSW,202,0.0,0.0,90,0.00,,,0.00,Weather View 32 v70,2013-10-15 04:42:00,
2013-10-15 00:47:00,45.0,42.2,30.27,SSW,202,0.0,0.0,90,0.00,,,0.00,Weather View 32 v70,2013-10-15 04:47:00,
2013-10-15 00:52:00,45.0,42.2,30.27,South,180,0.0,0.0,90,0.00,,,0.00,Weather View 32 v70,2013-10-15 04:52:00,
2013-10-15 00:57:00,45.0,42.2,30.27,NW,315,0.0,0.0,90,0.00,,,0.00,Weather View 32 v70,2013-10-15 04:57:00,
2013-10-15 01:02:00,44.0,41.3,30.27,West,270,0.0,0.0,90,0.00,,,0.00,Weather View 32 v70,2013-10-15 05:02:00,
2013-10-15 01:07:00,44.0,41.3,30.27,SW,225,0.0,0.0,90,0.00,,,0.00,Weather View 32 v70,2013-10-15 05:07:00,
2013-10-15 01:12:00,44.0,41.3,30.27,West,270,0.0,0.0,90,0.00,,,0.00,Weather View 32 v70,2013-10-15 05:12:00,
2013-10-15 01:17:00,44.0,41.3,30.27,SE,135,0.0,0.0,90,0.00,,,0.00,Weather View 32 v70,2013-10-15 05:17:00,
2013-10-15 01:22:00,44.0,41.3,30.27,West,270,0.0,0.0,90,0.00,,,0.00,Weather View 32 v70,2013-10-15 05:22:00,
2013-10-15 01:27:00,44.0,41.3,30.27,SSE,158,0.0,0.0,90,0.00,,,0.00,Weather View 32 v70,2013-10-15 05:27:00,
2013-10-15 01:32:00,44.0,41.3,30.27,NNW,338,0.0,0.0,90,0.00,,,0.00,Weather View 32 v70,2013-10-15 05:32:00,
2013-10-15 01:37:00,44.0,41.5,30.27,SW,225,0.0,0.0,91,0.00,,,0.00,Weather View 32 v70,2013-10-15 05:37:00,
2013-10-15 01:42:00,45.0,42.5,30.27,West,270,0.0,0.0,91,0.00,,,0.00,Weather View 32 v70,2013-10-15 05:42:00,
2013-10-15 01:47:00,45.0,42.5,30.27,West,270,0.0,0.0,91,0.00,,,0.00,Weather View 32 v70,2013-10-15 05:47:00,
2013-10-15 01:52:00,45.0,42.5,30.26,West,270,0.0,0.0,91,0.00,,,0.00,Weather View 32 v70,2013-10-15 05:52:00,
2013-10-15 01:57:00,45.0,42.5,30.26,West,270,0.0,0.0,91,0.00,,,0.00,Weather View 32 v70,2013-10-15 05:57:00,
2013-10-15 02:02:00,45.0,42.5,30.26,West,270,0.0,0.0,91,0.00,,,0.00,Weather View 32 v70,2013-10-15 06:02:00,
2013-10-15 02:07:00,45.0,42.5,30.26,West,270,0.0,0.0,91,0.00,,,0.00,Weather View 32 v70,2013-10-15 06:07:00,
2013-10-15 02:12:00,45.0,42.5,30.26,SW,225,0.0,0.0,91,0.00,,,0.00,Weather View 32 v70,2013-10-15 06:12:00,
2013-10-15 02:17:00,45.0,42.5,30.26,WNW,292,0.0,0.0,91,0.00,,,0.00,Weather View 32 v70,2013-10-15 06:17:00,
2013-10-15 02:27:00,45.0,42.5,30.26,ESE,112,0.0,0.0,91,0.00,,,0.00,Weather View 32 v70,2013-10-15 06:27:00,
2013-10-15 02:32:00,45.0,42.5,30.25,SE,135,0.0,0.0,91,0.00,,,0.00,Weather View 32 v70,2013-10-15 06:32:00,
2013-10-15 02:37:00,45.0,42.5,30.26,SE,135,0.0,0.0,91,0.00,,,0.00,Weather View 32 v70,2013-10-15 06:37:00,
2013-10-15 02:42:00,45.0,42.5,30.25,SE,135,0.0,0.0,91,0.00,,,0.00,Weather View 32 v70,2013-10-15 06:42:00,
2013-10-15 02:47:00,45.0,42.5,30.25,ENE,68,0.0,0.0,91,0.00,,,0.00,Weather View 32 v70,2013-10-15 06:47:00,
2013-10-15 02:52:00,45.0,42.5,30.25,East,90,0.0,0.0,91,0.00,,,0.00,Weather View 32 v70,2013-10-15 06:52:00,
2013-10-15 02:58:00,45.0,42.5,30.25,SE,135,0.0,0.0,91,0.00,,,0.00,Weather View 32 v70,2013-10-15 06:58:00,
2013-10-15 03:03:00,45.0,42.5,30.25,SE,135,0.0,0.0,91,0.00,,,0.00,Weather View 32 v70,2013-10-15 07:03:00,
2013-10-15 03:08:00,45.0,42.5,30.24,SE,135,0.0,0.0,91,0.00,,,0.00,Weather View 32 v70,2013-10-15 07:08:00,
2013-10-15 03:13:00,44.0,41.5,30.24,SE,135,0.0,0.0,91,0.00,,,0.00,Weather View 32 v70,2013-10-15 07:13:00,
2013-10-15 03:18:00,44.0,41.5,30.24,ENE,68,0.0,0.0,91,0.00,,,0.00,Weather View 32 v70,2013-10-15 07:18:00,
2013-10-15 03:23:00,44.0,41.5,30.24,WNW,292,0.0,0.0,91,0.00,,,0.00,Weather View 32 v70,2013-10-15 07:23:00,
2013-10-15 03:28:00,44.0,41.5,30.24,West,270,0.0,0.0,91,0.00,,,0.00,Weather View 32 v70,2013-10-15 07:28:00,
2013-10-15 03:33:00,44.0,41.8,30.24,South,180,0.0,0.0,92,0.00,,,0.00,Weather View 32 v70,2013-10-15 07:33:00,
2013-10-15 03:38:00,43.0,40.5,30.24,South,180,0.0,0.0,91,0.00,,,0.00,Weather View 32 v70,2013-10-15 07:38:00,
2013-10-15 03:43:00,43.0,40.8,30.24,South,180,0.0,0.0,92,0.00,,,0.00,Weather View 32 v70,2013-10-15 07:43:00,
2013-10-15 03:48:00,43.0,40.8,30.24,South,180,0.0,0.0,92,0.00,,,0.00,Weather View 32 v70,2013-10-15 07:48:00,
2013-10-15 03:53:00,43.0,40.8,30.25,WNW,292,0.0,0.0,92,0.00,,,0.00,Weather View 32 v70,2013-10-15 07:53:00,
2013-10-15 03:58:00,42.0,39.6,30.24,SW,225,0.0,0.0,91,0.00,,,0.00,Weather View 32 v70,2013-10-15 07:58:00,
2013-10-15 04:03:00,42.0,39.6,30.24,SSW,202,0.0,0.0,91,0.00,,,0.00,Weather View 32 v70,2013-10-15 08:03:00,
2013-10-15 04:08:00,42.0,39.8,30.24,SSW,202,0.0,0.0,92,0.00,,,0.00,Weather View 32 v70,2013-10-15 08:08:00,
2013-10-15 04:13:00,42.0,39.8,30.24,South,180,0.0,0.0,92,0.00,,,0.00,Weather View 32 v70,2013-10-15 08:13:00,
2013-10-15 04:18:00,42.0,39.6,30.24,SE,135,0.0,0.0,91,0.00,,,0.00,Weather View 32 v70,2013-10-15 08:18:00,
2013-10-15 04:23:00,42.0,39.6,30.25,ESE,112,0.0,0.0,91,0.00,,,0.00,Weather View 32 v70,2013-10-15 08:23:00,
2013-10-15 04:28:00,42.0,39.6,30.25,ESE,112,0.0,0.0,91,0.00,,,0.00,Weather View 32 v70,2013-10-15 08:28:00,
2013-10-15 04:33:00,41.0,38.6,30.25,ESE,112,0.0,0.0,91,0.00,,,0.00,Weather View 32 v70,2013-10-15 08:33:00,
2013-10-15 04:38:00,41.0,39.1,30.25,ESE,112,0.0,0.0,93,0.00,,,0.00,Weather View 32 v70,2013-10-15 08:38:00,
2013-10-15 04:43:00,41.0,38.9,30.24,SSW,202,0.0,0.0,92,0.00,,,0.00,Weather View 32 v70,2013-10-15 08:43:00,
2013-10-15 04:48:00,41.0,38.9,30.25,South,180,0.0,0.0,92,0.00,,,0.00,Weather View 32 v70,2013-10-15 08:48:00,
2013-10-15 04:50:00,41.0,38.9,30.24,SW,225,0.0,0.0,92,0.00,,,0.00,Weather View 32 v70,2013-10-15 08:50:00,
2013-10-15 04:55:00,41.0,39.1,30.25,SW,225,0.0,0.0,93,0.00,,,0.00,Weather View 32 v70,2013-10-15 08:55:00,
2013-10-15 05:00:00,41.0,39.1,30.24,SW,225,0.0,0.0,93,0.00,,,0.00,Weather View 32 v70,2013-10-15 09:00:00,
2013-10-15 05:05:00,41.0,39.1,30.24,SW,225,0.0,0.0,93,0.00,,,0.00,Weather View 32 v70,2013-10-15 09:05:00,
2013-10-15 05:10:00,41.0,39.1,30.24,SW,225,0.0,0.0,93,0.00,,,0.00,Weather View 32 v70,2013-10-15 09:10:00,
2013-10-15 05:15:00,41.0,38.9,30.24,SW,225,0.0,0.0,92,0.00,,,0.00,Weather View 32 v70,2013-10-15 09:15:00,
2013-10-15 05:20:00,40.0,37.9,30.24,SW,225,0.0,0.0,92,0.00,,,0.00,Weather View 32 v70,2013-10-15 09:20:00,
2013-10-15 05:25:00,40.0,38.1,30.24,SE,135,0.0,0.0,93,0.00,,,0.00,Weather View 32 v70,2013-10-15 09:25:00,
2013-10-15 05:30:00,40.0,37.6,30.24,NNE,22,0.0,0.0,91,0.00,,,0.00,Weather View 32 v70,2013-10-15 09:30:00,
2013-10-15 05:35:00,40.0,37.6,30.24,SW,225,0.0,0.0,91,0.00,,,0.00,Weather View 32 v70,2013-10-15 09:35:00,
2013-10-15 05:40:00,40.0,37.6,30.24,WSW,248,0.0,0.0,91,0.00,,,0.00,Weather View 32 v70,2013-10-15 09:40:00,
2013-10-15 05:45:00,40.0,37.9,30.24,WNW,292,0.0,0.0,92,0.00,,,0.00,Weather View 32 v70,2013-10-15 09:45:00,
2013-10-15 05:50:00,40.0,38.1,30.24,West,270,0.0,0.0,93,0.00,,,0.00,Weather View 32 v70,2013-10-15 09:50:00,
2013-10-15 05:55:00,40.0,37.9,30.24,West,270,0.0,0.0,92,0.00,,,0.00,Weather View 32 v70,2013-10-15 09:55:00,
2013-10-15 06:00:00,40.0,37.9,30.25,West,270,0.0,0.0,92,0.00,,,0.00,Weather View 32 v70,2013-10-15 10:00:00,
2013-10-15 06:05:00,40.0,37.9,30.25,SW,225,0.0,0.0,92,0.00,,,0.00,Weather View 32 v70,2013-10-15 10:05:00,
2013-10-15 06:10:00,40.0,37.9,30.25,WSW,248,0.0,0.0,92,0.00,,,0.00,Weather View 32 v70,2013-10-15 10:10:00,
2013-10-15 06:15:00,40.0,37.9,30.25,WSW,248,0.0,0.0,92,0.00,,,0.00,Weather View 32 v70,2013-10-15 10:15:00,
2013-10-15 06:20:00,40.0,37.9,30.25,West,270,0.0,0.0,92,0.00,,,0.00,Weather View 32 v70,2013-10-15 10:20:00,
2013-10-15 06:25:00,40.0,37.9,30.25,SSE,158,0.0,0.0,92,0.00,,,0.00,Weather View 32 v70,2013-10-15 10:25:00,
2013-10-15 06:30:00,40.0,37.9,30.25,South,180,0.0,0.0,92,0.00,,,0.00,Weather View 32 v70,2013-10-15 10:30:00,
2013-10-15 06:35:00,40.0,37.9,30.26,WNW,292,0.0,0.0,92,0.00,,,0.00,Weather View 32 v70,2013-10-15 10:35:00,
2013-10-15 06:40:00,40.0,37.9,30.26,SSE,158,0.0,0.0,92,0.00,,,0.00,Weather View 32 v70,2013-10-15 10:40:00,
2013-10-15 06:45:00,40.0,37.9,30.26,WNW,292,0.0,0.0,92,0.00,,,0.00,Weather View 32 v70,2013-10-15 10:45:00,
2013-10-15 06:50:00,40.0,37.9,30.26,WNW,292,0.0,0.0,92,0.00,,,0.00,Weather View 32 v70,2013-10-15 10:50:00,
2013-10-15 06:55:00,40.0,37.9,30.26,West,270,0.0,0.0,92,0.01,,,0.01,Weather View 32 v70,2013-10-15 10:55:00,
2013-10-15 07:00:00,40.0,37.9,30.26,SW,225,0.0,0.0,92,0.01,,,0.01,Weather View 32 v70,2013-10-15 11:00:00,
2013-10-15 07:05:00,40.0,37.9,30.26,NW,315,0.0,0.0,92,0.01,,,0.01,Weather View 32 v70,2013-10-15 11:05:00,
2013-10-15 07:10:00,40.0,37.9,30.26,WNW,292,0.0,0.0,92,0.01,,,0.01,Weather View 32 v70,2013-10-15 11:10:00,
2013-10-15 07:15:00,40.0,37.9,30.26,SSW,202,0.0,0.0,92,0.01,,,0.01,Weather View 32 v70,2013-10-15 11:15:00,
2013-10-15 07:20:00,40.0,37.9,30.26,SSW,202,0.0,0.0,92,0.01,,,0.01,Weather View 32 v70,2013-10-15 11:20:00,
2013-10-15 07:25:00,40.0,37.9,30.26,SSW,202,0.0,0.0,92,0.01,,,0.01,Weather View 32 v70,2013-10-15 11:25:00,
2013-10-15 07:30:00,40.0,37.9,30.26,WNW,292,0.0,0.0,92,0.01,,,0.01,Weather View 32 v70,2013-10-15 11:30:00,
2013-10-15 07:35:00,40.0,37.9,30.26,WNW,292,0.0,0.0,92,0.01,,,0.01,Weather View 32 v70,2013-10-15 11:35:00,
2013-10-15 07:40:00,41.0,38.9,30.26,WNW,292,0.0,0.0,92,0.01,,,0.01,Weather View 32 v70,2013-10-15 11:40:00,
2013-10-15 07:45:00,41.0,38.9,30.25,West,270,0.0,0.0,92,0.01,,,0.01,Weather View 32 v70,2013-10-15 11:45:00,
2013-10-15 07:50:00,42.0,39.8,30.25,North,0,0.0,0.0,92,0.01,,,0.01,Weather View 32 v70,2013-10-15 11:50:00,
2013-10-15 07:55:00,43.0,40.8,30.25,SSE,158,0.0,0.0,92,0.00,,,0.01,Weather View 32 v70,2013-10-15 11:55:00,
2013-10-15 08:00:00,43.0,40.8,30.25,SSE,158,0.0,0.0,92,0.00,,,0.01,Weather View 32 v70,2013-10-15 12:00:00,
2013-10-15 08:05:00,44.0,41.8,30.25,WNW,292,0.0,0.0,92,0.00,,,0.01,Weather View 32 v70,2013-10-15 12:05:00,
2013-10-15 08:10:00,44.0,41.8,30.25,South,180,0.0,0.0,92,0.00,,,0.01,Weather View 32 v70,2013-10-15 12:10:00,
2013-10-15 08:15:00,44.0,41.8,30.26,South,180,0.0,0.0,92,0.00,,,0.01,Weather View 32 v70,2013-10-15 12:15:00,
2013-10-15 08:20:00,44.0,41.8,30.26,NW,315,0.0,0.0,92,0.00,,,0.01,Weather View 32 v70,2013-10-15 12:20:00,
2013-10-15 08:25:00,45.0,42.8,30.26,SW,225,0.0,0.0,92,0.00,,,0.01,Weather View 32 v70,2013-10-15 12:25:00,
2013-10-15 08:30:00,45.0,43.1,30.26,South,180,0.0,0.0,93,0.00,,,0.01,Weather View 32 v70,2013-10-15 12:30:00,
2013-10-15 08:35:00,46.0,44.1,30.26,NE,45,0.0,0.0,93,0.00,,,0.01,Weather View 32 v70,2013-10-15 12:35:00,
2013-10-15 08:40:00,46.0,44.4,30.26,WNW,292,0.0,0.0,94,0.00,,,0.01,Weather View 32 v70,2013-10-15 12:40:00,
2013-10-15 08:45:00,47.0,45.4,30.25,South,180,0.0,0.0,94,0.00,,,0.01,Weather View 32 v70,2013-10-15 12:45:00,
2013-10-15 08:50:00,48.0,47.5,30.25,SE,135,0.0,0.0,98,0.00,,,0.01,Weather View 32 v70,2013-10-15 12:50:00,
2013-10-15 08:55:00,48.0,45.8,30.25,NE,45,0.0,0.0,92,0.00,,,0.01,Weather View 32 v70,2013-10-15 12:55:00,
2013-10-15 09:00:00,49.0,47.3,30.25,NNW,338,0.0,0.0,94,0.00,,,0.01,Weather View 32 v70,2013-10-15 13:00:00,
2013-10-15 09:05:00,50.0,47.8,30.25,NNE,22,0.0,0.0,92,0.00,,,0.01,Weather View 32 v70,2013-10-15 13:05:00,
2013-10-15 09:10:00,50.0,48.3,30.25,ENE,68,0.0,0.0,94,0.00,,,0.01,Weather View 32 v70,2013-10-15 13:10:00,
2013-10-15 09:15:00,51.0,49.3,30.25,SSE,158,0.0,0.0,94,0.00,,,0.01,Weather View 32 v70,2013-10-15 13:15:00,
2013-10-15 09:20:00,53.0,50.7,30.25,ESE,112,0.0,0.0,92,0.00,,,0.01,Weather View 32 v70,2013-10-15 13:20:00,
2013-10-15 09:25:00,54.0,52.0,30.25,SE,135,0.0,0.0,93,0.00,,,0.01,Weather View 32 v70,2013-10-15 13:25:00,
2013-10-15 09:30:00,55.0,52.7,30.25,East,90,0.0,0.0,92,0.00,,,0.01,Weather View 32 v70,2013-10-15 13:30:00,
2013-10-15 09:35:00,56.0,53.1,30.24,East,90,0.0,0.0,90,0.00,,,0.01,Weather View 32 v70,2013-10-15 13:35:00,
2013-10-15 09:40:00,57.0,53.5,30.24,ESE,112,0.0,0.0,88,0.00,,,0.01,Weather View 32 v70,2013-10-15 13:40:00,
2013-10-15 09:45:00,57.0,52.8,30.24,WSW,248,0.0,0.0,86,0.00,,,0.01,Weather View 32 v70,2013-10-15 13:45:00,
2013-10-15 09:50:00,58.0,52.9,30.25,SW,225,0.0,0.0,83,0.00,,,0.01,Weather View 32 v70,2013-10-15 13:50:00,
2013-10-15 09:56:00,60.0,54.1,30.25,SW,225,0.0,1.0,81,0.00,,,0.01,Weather View 32 v70,2013-10-15 13:56:00,
2013-10-15 10:01:00,60.0,54.8,30.25,NE,45,0.0,1.0,83,0.00,,,0.01,Weather View 32 v70,2013-10-15 14:01:00,
2013-10-15 10:06:00,61.0,51.1,30.25,North,0,0.0,1.0,70,0.00,,,0.01,Weather View 32 v70,2013-10-15 14:06:00,
2013-10-15 10:11:00,60.0,49.4,30.25,West,270,0.0,2.0,68,0.00,,,0.01,Weather View 32 v70,2013-10-15 14:11:00,
2013-10-15 10:16:00,61.0,49.5,30.25,NW,315,0.0,2.0,66,0.00,,,0.01,Weather View 32 v70,2013-10-15 14:16:00,
2013-10-15 10:21:00,61.0,49.9,30.25,NNE,22,0.0,2.0,67,0.00,,,0.01,Weather View 32 v70,2013-10-15 14:21:00,
2013-10-15 10:26:00,62.0,49.2,30.25,SSE,158,0.0,2.0,63,0.00,,,0.01,Weather View 32 v70,2013-10-15 14:26:00,
2013-10-15 10:31:00,62.0,47.9,30.25,SE,135,0.0,2.0,60,0.00,,,0.01,Weather View 32 v70,2013-10-15 14:31:00,
2013-10-15 10:36:00,63.0,49.3,30.25,ESE,112,0.0,3.0,61,0.00,,,0.01,Weather View 32 v70,2013-10-15 14:36:00,
2013-10-15 10:41:00,64.0,48.4,30.25,ENE,68,0.0,3.0,57,0.00,,,0.01,Weather View 32 v70,2013-10-15 14:41:00,
2013-10-15 10:46:00,64.0,48.9,30.25,SE,135,0.0,4.0,58,0.00,,,0.01,Weather View 32 v70,2013-10-15 14:46:00,
2013-10-15 10:51:00,64.0,48.9,30.25,SSE,158,0.0,4.0,58,0.00,,,0.01,Weather View 32 v70,2013-10-15 14:51:00,
2013-10-15 10:56:00,64.0,48.9,30.25,ENE,68,0.0,4.0,58,0.00,,,0.01,Weather View 32 v70,2013-10-15 14:56:00,
2013-10-15 11:01:00,64.0,47.5,30.24,ENE,68,0.0,4.0,55,0.00,,,0.01,Weather View 32 v70,2013-10-15 15:01:00,
2013-10-15 11:06:00,64.0,46.5,30.24,SW,225,0.0,4.0,53,0.00,,,0.01,Weather View 32 v70,2013-10-15 15:06:00,
2013-10-15 11:11:00,65.0,47.9,30.24,ENE,68,0.0,4.0,54,0.00,,,0.01,Weather View 32 v70,2013-10-15 15:11:00,
2013-10-15 11:16:00,65.0,46.4,30.24,NW,315,0.0,4.0,51,0.00,,,0.01,Weather View 32 v70,2013-10-15 15:16:00,
2013-10-15 11:21:00,66.0,48.8,30.25,WNW,292,0.0,4.0,54,0.00,,,0.01,Weather View 32 v70,2013-10-15 15:21:00,
2013-10-15 11:26:00,66.0,48.3,30.24,ESE,112,0.0,5.0,53,0.00,,,0.01,Weather View 32 v70,2013-10-15 15:26:00,
2013-10-15 11:31:00,66.0,48.3,30.24,NNW,338,0.0,5.0,53,0.00,,,0.01,Weather View 32 v70,2013-10-15 15:31:00,
2013-10-15 11:36:00,67.0,48.7,30.24,SSE,158,0.0,5.0,52,0.00,,,0.01,Weather View 32 v70,2013-10-15 15:36:00,
2013-10-15 11:41:00,67.0,47.7,30.24,NNW,338,0.0,5.0,50,0.00,,,0.01,Weather View 32 v70,2013-10-15 15:41:00,
2013-10-15 11:46:00,68.0,48.1,30.24,ENE,68,0.0,5.0,49,0.00,,,0.01,Weather View 32 v70,2013-10-15 15:46:00,
2013-10-15 11:51:00,68.0,47.5,30.24,ESE,112,0.0,5.0,48,0.00,,,0.01,Weather View 32 v70,2013-10-15 15:51:00,
2013-10-15 11:56:00,68.0,47.0,30.24,ESE,112,0.0,5.0,47,0.00,,,0.01,Weather View 32 v70,2013-10-15 15:56:00,
2013-10-15 12:01:00,68.0,47.0,30.24,SW,225,0.0,5.0,47,0.00,,,0.01,Weather View 32 v70,2013-10-15 16:01:00,
2013-10-15 12:06:00,68.0,46.4,30.24,North,0,0.0,5.0,46,0.00,,,0.01,Weather View 32 v70,2013-10-15 16:06:00,
2013-10-15 12:11:00,69.0,46.7,30.23,ESE,112,2.0,5.0,45,0.00,,,0.01,Weather View 32 v70,2013-10-15 16:11:00,
2013-10-15 12:16:00,68.0,46.4,30.23,ENE,68,2.0,5.0,46,0.00,,,0.01,Weather View 32 v70,2013-10-15 16:16:00,
2013-10-15 12:21:00,68.0,47.0,30.23,East,90,1.0,5.0,47,0.00,,,0.01,Weather View 32 v70,2013-10-15 16:21:00,
2013-10-15 12:27:00,69.0,45.5,30.23,SE,135,3.0,5.0,43,0.00,,,0.01,Weather View 32 v70,2013-10-15 16:27:00,
2013-10-15 12:32:00,69.0,46.1,30.23,NNE,22,0.0,5.0,44,0.00,,,0.01,Weather View 32 v70,2013-10-15 16:32:00,
2013-10-15 12:37:00,69.0,46.7,30.23,NNE,22,0.0,5.0,45,0.00,,,0.01,Weather View 32 v70,2013-10-15 16:37:00,
2013-10-15 12:42:00,69.0,46.1,30.23,South,180,2.0,5.0,44,0.00,,,0.01,Weather View 32 v70,2013-10-15 16:42:00,
2013-10-15 12:47:00,69.0,46.1,30.22,ESE,112,1.0,5.0,44,0.00,,,0.01,Weather View 32 v70,2013-10-15 16:47:00,
2013-10-15 12:52:00,69.0,46.1,30.22,East,90,3.0,5.0,44,0.00,,,0.01,Weather View 32 v70,2013-10-15 16:52:00,
2013-10-15 12:57:00,69.0,46.7,30.21,East,90,3.0,5.0,45,0.00,,,0.01,Weather View 32 v70,2013-10-15 16:57:00,
2013-10-15 13:02:00,69.0,46.1,30.22,SE,135,0.0,5.0,44,0.00,,,0.01,Weather View 32 v70,2013-10-15 17:02:00,
2013-10-15 13:07:00,69.0,47.3,30.22,ESE,112,0.0,5.0,46,0.00,,,0.01,Weather View 32 v70,2013-10-15 17:07:00,
2013-10-15 13:12:00,69.0,46.7,30.21,SSW,202,0.0,5.0,45,0.00,,,0.01,Weather View 32 v70,2013-10-15 17:12:00,
2013-10-15 13:17:00,70.0,48.2,30.21,ENE,68,0.0,5.0,46,0.00,,,0.01,Weather View 32 v70,2013-10-15 17:17:00,
2013-10-15 13:22:00,70.0,47.6,30.21,NE,45,5.0,6.0,45,0.00,,,0.01,Weather View 32 v70,2013-10-15 17:22:00,
2013-10-15 13:27:00,70.0,47.0,30.21,SE,135,0.0,7.0,44,0.00,,,0.01,Weather View 32 v70,2013-10-15 17:27:00,
2013-10-15 13:32:00,70.0,48.2,30.21,ENE,68,0.0,7.0,46,0.00,,,0.01,Weather View 32 v70,2013-10-15 17:32:00,
2013-10-15 13:37:00,70.0,47.6,30.20,ESE,112,5.0,7.0,45,0.00,,,0.01,Weather View 32 v70,2013-10-15 17:37:00,
2013-10-15 13:42:00,70.0,47.6,30.20,ENE,68,0.0,8.0,45,0.00,,,0.01,Weather View 32 v70,2013-10-15 17:42:00,
2013-10-15 13:47:00,70.0,47.6,30.20,ENE,68,3.0,8.0,45,0.00,,,0.01,Weather View 32 v70,2013-10-15 17:47:00,
2013-10-15 13:52:00,70.0,47.6,30.20,ESE,112,0.0,8.0,45,0.00,,,0.01,Weather View 32 v70,2013-10-15 17:52:00,
2013-10-15 13:57:00,70.0,48.2,30.20,East,90,2.0,8.0,46,0.00,,,0.01,Weather View 32 v70,2013-10-15 17:57:00,
2013-10-15 14:02:00,70.0,48.2,30.20,ESE,112,2.0,8.0,46,0.00,,,0.01,Weather View 32 v70,2013-10-15 18:02:00,
2013-10-15 14:07:00,70.0,47.6,30.20,ESE,112,2.0,8.0,45,0.00,,,0.01,Weather View 32 v70,2013-10-15 18:07:00,
2013-10-15 14:12:00,70.0,48.2,30.20,ENE,68,4.0,8.0,46,0.00,,,0.01,Weather View 32 v70,2013-10-15 18:12:00,
2013-10-15 14:17:00,70.0,48.2,30.20,ESE,112,4.0,8.0,46,0.00,,,0.01,Weather View 32 v70,2013-10-15 18:17:00,
2013-10-15 14:22:00,70.0,47.6,30.20,South,180,0.0,8.0,45,0.00,,,0.01,Weather View 32 v70,2013-10-15 18:22:00,
2013-10-15 14:27:00,70.0,47.6,30.19,East,90,4.0,8.0,45,0.00,,,0.01,Weather View 32 v70,2013-10-15 18:27:00,
2013-10-15 14:32:00,70.0,47.0,30.19,NNE,22,2.0,8.0,44,0.00,,,0.01,Weather View 32 v70,2013-10-15 18:32:00,
2013-10-15 14:37:00,70.0,46.4,30.19,SSE,158,0.0,8.0,43,0.00,,,0.01,Weather View 32 v70,2013-10-15 18:37:00,
2013-10-15 14:42:00,70.0,45.8,30.20,NE,45,2.0,7.0,42,0.00,,,0.01,Weather View 32 v70,2013-10-15 18:42:00,
2013-10-15 14:47:00,70.0,45.8,30.19,SSE,158,2.0,7.0,42,0.00,,,0.01,Weather View 32 v70,2013-10-15 18:47:00,
2013-10-15 14:52:00,70.0,47.0,30.19,NE,45,0.0,7.0,44,0.00,,,0.01,Weather View 32 v70,2013-10-15 18:52:00,
2013-10-15 14:57:00,70.0,46.4,30.19,NNW,338,2.0,7.0,43,0.00,,,0.01,Weather View 32 v70,2013-10-15 18:57:00,
2013-10-15 15:03:00,70.0,45.8,30.19,East,90,3.0,7.0,42,0.00,,,0.01,Weather View 32 v70,2013-10-15 19:03:00,
2013-10-15 15:08:00,70.0,45.2,30.19,North,0,0.0,7.0,41,0.00,,,0.01,Weather View 32 v70,2013-10-15 19:08:00,
2013-10-15 15:13:00,70.0,45.2,30.19,ESE,112,2.0,7.0,41,0.00,,,0.01,Weather View 32 v70,2013-10-15 19:13:00,
2013-10-15 15:18:00,70.0,45.8,30.19,ENE,68,3.0,7.0,42,0.00,,,0.01,Weather View 32 v70,2013-10-15 19:18:00,
2013-10-15 15:23:00,70.0,45.2,30.19,East,90,3.0,7.0,41,0.00,,,0.01,Weather View 32 v70,2013-10-15 19:23:00,
2013-10-15 15:28:00,70.0,48.2,30.19,NW,315,0.0,7.0,46,0.00,,,0.01,Weather View 32 v70,2013-10-15 19:28:00,
2013-10-15 15:33:00,69.0,46.1,30.19,ESE,112,4.0,7.0,44,0.00,,,0.01,Weather View 32 v70,2013-10-15 19:33:00,
2013-10-15 15:38:00,69.0,45.5,30.19,NNW,338,0.0,7.0,43,0.00,,,0.01,Weather View 32 v70,2013-10-15 19:38:00,
2013-10-15 15:43:00,69.0,45.5,30.19,ENE,68,5.0,7.0,43,0.00,,,0.01,Weather View 32 v70,2013-10-15 19:43:00,
2013-10-15 15:48:00,69.0,45.5,30.18,NE,45,4.0,7.0,43,0.00,,,0.01,Weather View 32 v70,2013-10-15 19:48:00,
2013-10-15 15:53:00,69.0,46.7,30.18,ENE,68,3.0,7.0,45,0.00,,,0.01,Weather View 32 v70,2013-10-15 19:53:00,
2013-10-15 15:58:00,69.0,47.3,30.18,ENE,68,2.0,7.0,46,0.00,,,0.01,Weather View 32 v70,2013-10-15 19:58:00,
2013-10-15 16:03:00,69.0,47.3,30.18,NE,45,4.0,7.0,46,0.00,,,0.01,Weather View 32 v70,2013-10-15 20:03:00,
2013-10-15 16:08:00,68.0,47.0,30.18,ENE,68,3.0,7.0,47,0.00,,,0.01,Weather View 32 v70,2013-10-15 20:08:00,
2013-10-15 16:13:00,68.0,46.4,30.18,East,90,3.0,7.0,46,0.00,,,0.01,Weather View 32 v70,2013-10-15 20:13:00,
2013-10-15 16:18:00,68.0,46.4,30.18,NNW,338,2.0,7.0,46,0.00,,,0.01,Weather View 32 v70,2013-10-15 20:18:00,
2013-10-15 16:23:00,68.0,47.0,30.18,ENE,68,2.0,7.0,47,0.00,,,0.01,Weather View 32 v70,2013-10-15 20:23:00,
2013-10-15 16:28:00,67.0,47.7,30.18,ENE,68,2.0,7.0,50,0.00,,,0.01,Weather View 32 v70,2013-10-15 20:28:00,
2013-10-15 16:33:00,67.0,47.2,30.18,NNE,22,4.0,7.0,49,0.00,,,0.01,Weather View 32 v70,2013-10-15 20:33:00,
2013-10-15 16:38:00,67.0,46.6,30.18,East,90,3.0,7.0,48,0.00,,,0.01,Weather View 32 v70,2013-10-15 20:38:00,
2013-10-15 16:43:00,67.0,48.2,30.18,ENE,68,0.0,7.0,51,0.00,,,0.01,Weather View 32 v70,2013-10-15 20:43:00,
2013-10-15 16:48:00,66.0,46.8,30.18,NE,45,3.0,7.0,50,0.00,,,0.01,Weather View 32 v70,2013-10-15 20:48:00,
2013-10-15 16:53:00,66.0,47.8,30.18,ENE,68,3.0,7.0,52,0.00,,,0.01,Weather View 32 v70,2013-10-15 20:53:00,
2013-10-15 16:58:00,65.0,50.7,30.18,East,90,3.0,7.0,60,0.00,,,0.01,Weather View 32 v70,2013-10-15 20:58:00,
2013-10-15 17:03:00,65.0,48.4,30.19,ENE,68,5.0,7.0,55,0.00,,,0.01,Weather View 32 v70,2013-10-15 21:03:00,
2013-10-15 17:08:00,64.0,47.9,30.19,ENE,68,0.0,7.0,56,0.00,,,0.01,Weather View 32 v70,2013-10-15 21:08:00,
2013-10-15 17:13:00,64.0,47.0,30.19,ENE,68,5.0,7.0,54,0.00,,,0.01,Weather View 32 v70,2013-10-15 21:13:00,
2013-10-15 17:18:00,64.0,48.4,30.19,ESE,112,0.0,7.0,57,0.00,,,0.01,Weather View 32 v70,2013-10-15 21:18:00,
2013-10-15 17:23:00,63.0,46.5,30.19,ENE,68,4.0,7.0,55,0.00,,,0.01,Weather View 32 v70,2013-10-15 21:23:00,
2013-10-15 17:28:00,63.0,47.0,30.19,ESE,112,3.0,7.0,56,0.00,,,0.01,Weather View 32 v70,2013-10-15 21:28:00,
2013-10-15 17:33:00,62.0,47.0,30.19,ENE,68,0.0,7.0,58,0.00,,,0.01,Weather View 32 v70,2013-10-15 21:33:00,
2013-10-15 17:38:00,62.0,48.4,30.19,ENE,68,1.0,7.0,61,0.00,,,0.01,Weather View 32 v70,2013-10-15 21:38:00,
2013-10-15 17:43:00,62.0,49.2,30.19,ENE,68,2.0,7.0,63,0.00,,,0.01,Weather View 32 v70,2013-10-15 21:43:00,
2013-10-15 17:48:00,61.0,47.9,30.19,East,90,0.0,7.0,62,0.00,,,0.01,Weather View 32 v70,2013-10-15 21:48:00,
2013-10-15 17:53:00,61.0,46.5,30.19,NE,45,1.0,7.0,59,0.00,,,0.01,Weather View 32 v70,2013-10-15 21:53:00,
2013-10-15 17:59:00,61.0,47.0,30.19,SE,135,0.0,7.0,60,0.00,,,0.01,Weather View 32 v70,2013-10-15 21:59:00,
2013-10-15 18:04:00,61.0,47.4,30.19,NE,45,3.0,7.0,61,0.00,,,0.01,Weather View 32 v70,2013-10-15 22:04:00,
2013-10-15 18:09:00,60.0,46.5,30.19,East,90,0.0,7.0,61,0.00,,,0.01,Weather View 32 v70,2013-10-15 22:09:00,
2013-10-15 18:14:00,60.0,46.5,30.19,NNW,338,0.0,7.0,61,0.00,,,0.01,Weather View 32 v70,2013-10-15 22:14:00,
2013-10-15 18:19:00,60.0,46.9,30.19,East,90,0.0,7.0,62,0.00,,,0.01,Weather View 32 v70,2013-10-15 22:19:00,
2013-10-15 18:24:00,60.0,46.9,30.19,NE,45,0.0,7.0,62,0.00,,,0.01,Weather View 32 v70,2013-10-15 22:24:00,
2013-10-15 18:29:00,59.0,46.4,30.19,ESE,112,0.0,7.0,63,0.00,,,0.01,Weather View 32 v70,2013-10-15 22:29:00,
2013-10-15 18:34:00,59.0,46.8,30.19,ENE,68,0.0,7.0,64,0.00,,,0.01,Weather View 32 v70,2013-10-15 22:34:00,
2013-10-15 18:39:00,59.0,47.2,30.19,SE,135,0.0,7.0,65,0.00,,,0.01,Weather View 32 v70,2013-10-15 22:39:00,
2013-10-15 18:44:00,59.0,47.2,30.19,ESE,112,0.0,7.0,65,0.00,,,0.01,Weather View 32 v70,2013-10-15 22:44:00,
2013-10-15 18:49:00,59.0,47.6,30.19,NE,45,0.0,7.0,66,0.00,,,0.01,Weather View 32 v70,2013-10-15 22:49:00,
2013-10-15 18:54:00,58.0,46.7,30.20,East,90,0.0,7.0,66,0.00,,,0.01,Weather View 32 v70,2013-10-15 22:54:00,
2013-10-15 18:59:00,58.0,47.9,30.20,East,90,0.0,7.0,69,0.00,,,0.01,Weather View 32 v70,2013-10-15 22:59:00,
2013-10-15 19:04:00,58.0,47.9,30.20,NE,45,0.0,7.0,69,0.00,,,0.01,Weather View 32 v70,2013-10-15 23:04:00,
2013-10-15 19:09:00,58.0,48.2,30.20,East,90,0.0,5.0,70,0.00,,,0.01,Weather View 32 v70,2013-10-15 23:09:00,
2013-10-15 19:14:00,58.0,47.5,30.20,ENE,68,0.0,4.0,68,0.00,,,0.01,Weather View 32 v70,2013-10-15 23:14:00,
2013-10-15 19:19:00,58.0,47.9,30.20,NE,45,0.0,4.0,69,0.00,,,0.01,Weather View 32 v70,2013-10-15 23:19:00,
2013-10-15 19:24:00,58.0,47.9,30.20,ENE,68,0.0,4.0,69,0.00,,,0.01,Weather View 32 v70,2013-10-15 23:24:00,
2013-10-15 19:29:00,58.0,48.2,30.20,ENE,68,0.0,4.0,70,0.00,,,0.01,Weather View 32 v70,2013-10-15 23:29:00,
2013-10-15 19:34:00,58.0,48.2,30.20,NE,45,0.0,0.0,70,0.00,,,0.01,Weather View 32 v70,2013-10-15 23:34:00,
2013-10-15 19:39:00,58.0,48.6,30.21,NE,45,0.0,4.0,71,0.00,,,0.01,Weather View 32 v70,2013-10-15 23:39:00,
2013-10-15 19:44:00,58.0,48.6,30.21,ESE,112,0.0,4.0,71,0.00,,,0.01,Weather View 32 v70,2013-10-15 23:44:00,
2013-10-15 19:49:00,58.0,49.0,30.21,ENE,68,2.0,4.0,72,0.00,,,0.01,Weather View 32 v70,2013-10-15 23:49:00,
2013-10-15 19:54:00,57.0,48.0,30.20,East,90,0.0,4.0,72,0.00,,,0.01,Weather View 32 v70,2013-10-15 23:54:00,
2013-10-15 19:59:00,57.0,48.0,30.20,NE,45,0.0,4.0,72,0.00,,,0.01,Weather View 32 v70,2013-10-15 23:59:00,
2013-10-15 20:04:00,57.0,48.0,30.21,NNE,22,0.0,4.0,72,0.00,,,0.01,Weather View 32 v70,2013-10-16 00:04:00,
2013-10-15 20:09:00,57.0,48.0,30.20,SSE,158,0.0,4.0,72,0.00,,,0.01,Weather View 32 v70,2013-10-16 00:09:00,
2013-10-15 20:14:00,57.0,49.1,30.21,NW,315,0.0,4.0,75,0.00,,,0.01,Weather View 32 v70,2013-10-16 00:14:00,
2013-10-15 20:19:00,56.0,47.8,30.21,SE,135,0.0,4.0,74,0.00,,,0.01,Weather View 32 v70,2013-10-16 00:19:00,
2013-10-15 20:24:00,56.0,48.2,30.21,WNW,292,0.0,4.0,75,0.00,,,0.01,Weather View 32 v70,2013-10-16 00:24:00,
2013-10-15 20:30:00,56.0,48.5,30.21,NNE,22,0.0,4.0,76,-0.01,,,0.01,Weather View 32 v70,2013-10-16 00:30:00,
2013-10-15 20:35:00,55.0,48.3,30.21,North,0,0.0,4.0,78,0.00,,,0.01,Weather View 32 v70,2013-10-16 00:35:00,
2013-10-15 20:40:00,55.0,48.3,30.21,NNW,338,0.0,3.0,78,0.00,,,0.01,Weather View 32 v70,2013-10-16 00:40:00,
2013-10-15 20:45:00,55.0,49.6,30.21,SSE,158,0.0,3.0,82,0.00,,,0.01,Weather View 32 v70,2013-10-16 00:45:00,
2013-10-15 20:50:00,54.0,46.9,30.21,NW,315,0.0,3.0,77,0.00,,,0.01,Weather View 32 v70,2013-10-16 00:50:00,
2013-10-15 20:55:00,54.0,48.0,30.21,WNW,292,0.0,1.0,80,0.00,,,0.01,Weather View 32 v70,2013-10-16 00:55:00,
2013-10-15 21:00:00,54.0,50.5,30.21,West,270,0.0,0.0,88,0.00,,,0.01,Weather View 32 v70,2013-10-16 01:00:00,
2013-10-15 21:05:00,53.0,47.3,30.21,North,0,0.0,0.0,81,0.00,,,0.01,Weather View 32 v70,2013-10-16 01:05:00,
2013-10-15 21:10:00,53.0,46.6,30.21,SW,225,0.0,0.0,79,0.00,,,0.01,Weather View 32 v70,2013-10-16 01:10:00,
2013-10-15 21:15:00,52.0,48.9,30.21,West,270,0.0,0.0,89,0.00,,,0.01,Weather View 32 v70,2013-10-16 01:15:00,
2013-10-15 21:20:00,52.0,50.0,30.21,NW,315,0.0,0.0,93,0.00,,,0.01,Weather View 32 v70,2013-10-16 01:20:00,
2013-10-15 21:25:00,52.0,49.7,30.21,WNW,292,0.0,0.0,92,0.00,,,0.01,Weather View 32 v70,2013-10-16 01:25:00,
2013-10-15 21:30:00,51.0,49.0,30.21,NW,315,0.0,0.0,93,0.00,,,0.01,Weather View 32 v70,2013-10-16 01:30:00,
2013-10-15 21:35:00,51.0,49.0,30.21,SSE,158,0.0,0.0,93,0.00,,,0.01,Weather View 32 v70,2013-10-16 01:35:00,
2013-10-15 21:40:00,51.0,45.4,30.21,SSE,158,0.0,0.0,81,0.00,,,0.01,Weather View 32 v70,2013-10-16 01:40:00,
2013-10-15 21:45:00,51.0,45.7,30.21,SSE,158,0.0,0.0,82,0.00,,,0.01,Weather View 32 v70,2013-10-16 01:45:00,
2013-10-15 21:50:00,50.0,44.7,30.20,SSE,158,0.0,0.0,82,0.00,,,0.01,Weather View 32 v70,2013-10-16 01:50:00,
2013-10-15 21:55:00,50.0,44.7,30.20,SSE,158,0.0,0.0,82,0.00,,,0.01,Weather View 32 v70,2013-10-16 01:55:00,
2013-10-15 22:00:00,50.0,45.0,30.20,SSE,158,0.0,0.0,83,0.00,,,0.01,Weather View 32 v70,2013-10-16 02:00:00,
2013-10-15 22:05:00,50.0,45.0,30.20,SSE,158,0.0,0.0,83,0.00,,,0.01,Weather View 32 v70,2013-10-16 02:05:00,
2013-10-15 22:10:00,50.0,45.3,30.20,SSE,158,0.0,0.0,84,0.00,,,0.01,Weather View 32 v70,2013-10-16 02:10:00,
2013-10-15 22:15:00,49.0,44.4,30.20,SSE,158,0.0,0.0,84,0.00,,,0.01,Weather View 32 v70,2013-10-16 02:15:00,
2013-10-15 22:20:00,49.0,44.7,30.20,SSE,158,0.0,0.0,85,0.00,,,0.01,Weather View 32 v70,2013-10-16 02:20:00,
2013-10-15 22:25:00,49.0,44.4,30.20,SSE,158,0.0,0.0,84,0.00,,,0.01,Weather View 32 v70,2013-10-16 02:25:00,
2013-10-15 22:30:00,49.0,44.4,30.20,SSE,158,0.0,0.0,84,0.00,,,0.01,Weather View 32 v70,2013-10-16 02:30:00,
2013-10-15 22:35:00,49.0,44.4,30.19,ESE,112,0.0,0.0,84,0.00,,,0.01,Weather View 32 v70,2013-10-16 02:35:00,
2013-10-15 22:40:00,48.0,43.7,30.19,ESE,112,0.0,0.0,85,0.00,,,0.01,Weather View 32 v70,2013-10-16 02:40:00,
2013-10-15 22:45:00,48.0,43.7,30.19,ESE,112,0.0,0.0,85,0.00,,,0.01,Weather View 32 v70,2013-10-16 02:45:00,
2013-10-15 22:50:00,48.0,44.0,30.19,NNW,338,0.0,0.0,86,0.00,,,0.01,Weather View 32 v70,2013-10-16 02:50:00,
2013-10-15 22:55:00,48.0,43.7,30.19,West,270,0.0,0.0,85,0.00,,,0.01,Weather View 32 v70,2013-10-16 02:55:00,
2013-10-15 23:00:00,48.0,44.0,30.19,West,270,0.0,0.0,86,0.00,,,0.01,Weather View 32 v70,2013-10-16 03:00:00,
2013-10-15 23:05:00,48.0,44.3,30.19,WNW,292,0.0,0.0,87,0.00,,,0.01,Weather View 32 v70,2013-10-16 03:05:00,
2013-10-15 23:10:00,47.0,43.3,30.19,WSW,248,0.0,0.0,87,0.00,,,0.01,Weather View 32 v70,2013-10-16 03:10:00,
2013-10-15 23:15:00,47.0,43.3,30.19,WNW,292,0.0,0.0,87,0.00,,,0.01,Weather View 32 v70,2013-10-16 03:15:00,
2013-10-15 23:20:00,47.0,43.3,30.19,NW,315,0.0,0.0,87,0.00,,,0.01,Weather View 32 v70,2013-10-16 03:20:00,
2013-10-15 23:25:00,47.0,43.6,30.20,West,270,0.0,0.0,88,0.00,,,0.01,Weather View 32 v70,2013-10-16 03:25:00,
2013-10-15 23:30:00,47.0,43.6,30.20,West,270,0.0,0.0,88,0.00,,,0.01,Weather View 32 v70,2013-10-16 03:30:00,
2013-10-15 23:35:00,47.0,43.3,30.19,WSW,248,0.0,0.0,87,0.00,,,0.01,Weather View 32 v70,2013-10-16 03:35:00,
2013-10-15 23:40:00,47.0,43.3,30.19,SW,225,0.0,0.0,87,0.00,,,0.01,Weather View 32 v70,2013-10-16 03:40:00,
2013-10-15 23:45:00,46.0,42.6,30.19,NNW,338,0.0,0.0,88,0.00,,,0.01,Weather View 32 v70,2013-10-16 03:45:00,
2013-10-15 23:50:00,46.0,42.6,30.18,NNW,338,0.0,0.0,88,0.00,,,0.01,Weather View 32 v70,2013-10-16 03:50:00,
2013-10-15 23:55:00,46.0,42.9,30.18,West,270,0.0,0.0,89,0.00,,,0.01,Weather View 32 v70,2013-10-16 03:55:00,